Le nostre stazioni meteo in Italia

Pubblicità
Il mio iltempo24.it
Monte Terminillo, Italia (16219): Temperatura & dewpoint: 04.04.2020 04:00:00 - 10.04.2020 04:00:00 (CEST)Monte Terminillo, Italia (16219): velocità del vento & gusts: 04.04.2020 04:00:00 - 10.04.2020 04:00:00 (CEST)Monte Terminillo, Italia (16219): direzione del vento: 04.04.2020 04:00:00 - 10.04.2020 04:00:00 (CEST)Monte Terminillo, Italia (16219): ore di luce: 04.04.2020 04:00:00 - 10.04.2020 04:00:00 (CEST)
Data & Tempo tt [°C] td [°C] ff [km/h] ff [kn] fx [km/h] fx [kn] dd sd [min]
10.04.2020 04:00:00 3,8 -8,3 8 4 - - O 0
10.04.2020 03:00:00 3,9 -7,3 5 3 - - SO 0
10.04.2020 02:00:00 4,2 -6,6 4 2 - - N 0
10.04.2020 01:00:00 4,5 -5,8 4 2 - - N 0
10.04.2020 00:00:00 4,9 -4,1 18 10 - - N 0
09.04.2020 23:00:00 5,4 -4,0 18 10 - - N 0
09.04.2020 22:00:00 6,1 -0,3 15 8 - - NNE 0
09.04.2020 21:00:00 7,3 -1,1 9 5 - - N 0
09.04.2020 20:00:00 9,0 -3,7 16 9 - - ONO 37
09.04.2020 19:00:00 9,0 -3,4 13 7 - - ONO 60
09.04.2020 18:00:00 8,7 -6,3 16 9 - - ONO 60
09.04.2020 17:00:00 7,6 -12,0 4 2 - - N 60
09.04.2020 16:00:00 7,3 -12,1 4 2 - - N 60
09.04.2020 15:00:00 6,4 -13,0 4 2 - - N 60
09.04.2020 14:00:00 5,8 -12,2 15 8 - - SE 58
09.04.2020 13:00:00 - - - - - - - -
09.04.2020 12:00:00 4,6 -11,4 4 2 - - N 60
09.04.2020 11:00:00 4,1 -10,3 21 11 - - SE 60
09.04.2020 10:00:00 3,3 -15,3 15 8 - - ESE 60
09.04.2020 09:00:00 2,0 -15,9 4 2 - - N 60
09.04.2020 08:00:00 1,2 -15,9 21 11 - - E 47
09.04.2020 07:00:00 1,3 -12,5 18 10 - - ESE 0
09.04.2020 06:00:00 1,7 -10,5 8 4 - - ESE 0
09.04.2020 05:00:00 1,8 -5,8 5 3 - - NO 0
09.04.2020 04:00:00 2,5 -7,9 8 4 - - ONO 0
09.04.2020 03:00:00 2,9 -7,2 2 1 - - NO 0
09.04.2020 02:00:00 3,6 -9,0 4 2 - - N 0
09.04.2020 01:00:00 3,9 -8,8 5 3 - - NO 0
09.04.2020 00:00:00 4,4 -7,0 5 3 - - SE 0
08.04.2020 23:00:00 4,6 -6,7 5 3 - - E 0
08.04.2020 22:00:00 4,4 -4,8 4 2 - - N 0
08.04.2020 21:00:00 4,9 -4,5 15 8 - - NE 0
08.04.2020 20:00:00 7,8 -5,1 21 11 - - E 36
08.04.2020 19:00:00 8,8 -3,0 16 9 - - E 60
08.04.2020 18:00:00 9,0 -1,5 4 2 - - N 38
08.04.2020 17:00:00 9,0 -1,7 15 8 - - ONO 42
08.04.2020 16:00:00 8,7 -1,8 21 11 - - NO 53
08.04.2020 15:00:00 8,3 -2,2 18 10 - - O 43
08.04.2020 14:00:00 7,6 -4,8 15 8 - - ONO 60
08.04.2020 13:00:00 6,1 -2,7 4 2 - - N 60
08.04.2020 12:00:00 5,2 -4,6 4 2 - - N 60
08.04.2020 11:00:00 3,8 -4,3 8 4 - - NO 60
08.04.2020 10:00:00 2,3 -4,8 8 4 - - SE 60
08.04.2020 09:00:00 2,1 -4,6 4 2 - - N 60
08.04.2020 08:00:00 2,1 -4,7 4 2 - - N 45
08.04.2020 07:00:00 2,7 -3,8 4 2 - - N 0
08.04.2020 06:00:00 3,0 -3,3 4 2 - - N 0
08.04.2020 05:00:00 3,1 -3,7 4 2 - - N 0
08.04.2020 04:00:00 3,0 -4,1 5 3 - - E 0
08.04.2020 03:00:00 3,0 -4,1 5 3 - - ESE 0
08.04.2020 02:00:00 3,1 -3,0 9 5 - - ESE 0
08.04.2020 01:00:00 3,1 -2,6 13 7 - - E 0
08.04.2020 00:00:00 3,3 -2,1 15 8 - - ESE 0
07.04.2020 23:00:00 3,9 -1,7 16 9 - - ESE 0
07.04.2020 22:00:00 5,5 -1,1 15 8 - - E 0
07.04.2020 21:00:00 6,5 -1,4 16 9 - - E 0
07.04.2020 20:00:00 7,5 -1,4 8 4 - - ESE 18
07.04.2020 19:00:00 7,6 -2,3 4 2 - - N 24
07.04.2020 18:00:00 7,9 -3,6 4 2 - - N 1
07.04.2020 17:00:00 7,6 -4,8 4 2 - - N 0
07.04.2020 16:00:00 7,4 -5,3 4 2 - - N 10
07.04.2020 15:00:00 6,6 -4,6 4 2 - - N 46
07.04.2020 14:00:00 - - - - - - - -
07.04.2020 13:00:00 5,1 -5,4 4 2 - - N 60
07.04.2020 12:00:00 4,5 -5,4 21 11 - - SE 60
07.04.2020 11:00:00 3,9 -5,8 22 12 - - SE 60
07.04.2020 10:00:00 2,6 -6,9 26 14 - - SE 60
07.04.2020 09:00:00 1,2 -7,8 22 12 - - E 60
07.04.2020 08:00:00 1,2 -7,5 4 2 - - N 43
07.04.2020 07:00:00 1,2 -7,5 29 16 - - E 0
07.04.2020 06:00:00 1,4 -5,8 29 16 - - E 0
07.04.2020 05:00:00 2,1 -5,3 29 16 - - E 0
07.04.2020 04:00:00 2,2 -2,6 22 12 - - ESE 0
07.04.2020 03:00:00 2,8 -2,7 5 3 - - ESE 0
07.04.2020 02:00:00 2,9 -2,4 4 2 - - - 0
07.04.2020 01:00:00 2,8 -2,8 9 5 - - ENE 0
07.04.2020 00:00:00 2,6 -4,2 4 2 - - N 0
06.04.2020 23:00:00 2,6 -2,7 4 2 - - N 0
06.04.2020 22:00:00 3,6 -1,3 15 8 - - E 0
06.04.2020 21:00:00 4,9 -1,5 18 10 - - E 0
06.04.2020 20:00:00 5,6 -3,6 13 7 - - SE 0
06.04.2020 19:00:00 5,8 -3,9 4 2 - - N 0
06.04.2020 18:00:00 5,9 -4,0 15 8 - - SE 9
06.04.2020 17:00:00 5,9 -5,4 22 12 - - SE 16
06.04.2020 16:00:00 5,8 -5,8 16 9 - - ESE 59
06.04.2020 15:00:00 5,5 -5,9 15 8 - - E 60
06.04.2020 14:00:00 5,0 -5,5 15 8 - - E 60
06.04.2020 13:00:00 3,7 -5,3 4 2 - - N 60
06.04.2020 12:00:00 2,5 -5,4 4 2 - - N 60
06.04.2020 11:00:00 2,0 -5,2 22 12 - - E 55
06.04.2020 10:00:00 1,4 -5,7 4 2 - - N 60
06.04.2020 09:00:00 0,8 -6,8 4 2 - - N 60
06.04.2020 08:00:00 0,4 -6,6 28 15 - - E 42
06.04.2020 07:00:00 0,5 -6,3 4 2 40 21 N 0
06.04.2020 06:00:00 - - - - - - - -
06.04.2020 05:00:00 0,7 -4,9 22 12 - - - 0
06.04.2020 04:00:00 0,7 -5,3 22 12 - - E 0
06.04.2020 03:00:00 0,8 -5,3 18 10 - - E 0
06.04.2020 02:00:00 1,6 -6,2 21 11 - - E 0
06.04.2020 01:00:00 1,5 -6,4 18 10 - - ESE 0
06.04.2020 00:00:00 1,3 -5,7 15 8 - - E 0
05.04.2020 23:00:00 1,4 -5,4 4 2 - - N 0
05.04.2020 22:00:00 1,1 -4,4 29 16 49 27 E 0
05.04.2020 21:00:00 1,9 -4,6 4 2 64 35 N 0
05.04.2020 20:00:00 2,2 -5,3 4 2 - - N 33
05.04.2020 19:00:00 - - - - - - - -
05.04.2020 18:00:00 2,6 -4,5 31 17 - - E 53
05.04.2020 17:00:00 3,0 -3,7 21 11 - - E 50
05.04.2020 16:00:00 3,1 -5,1 34 18 50 27 E 42
05.04.2020 15:00:00 2,2 -5,6 31 17 - - E 45
05.04.2020 14:00:00 1,4 -5,9 26 14 - - E 51
05.04.2020 13:00:00 1,0 -6,2 31 17 52 28 E 37
05.04.2020 12:00:00 0,3 -6,3 41 22 61 33 E 29
05.04.2020 11:00:00 -0,4 -5,9 61 33 - - E 43
05.04.2020 10:00:00 -1,5 -6,2 54 29 75 41 E 60
05.04.2020 09:00:00 -1,6 -6,0 4 2 62 34 N 42
05.04.2020 08:00:00 -1,4 -6,5 50 27 - - E 29
05.04.2020 07:00:00 -1,6 -6,8 55 30 - - E 0
05.04.2020 06:00:00 - - - - - - - -
05.04.2020 05:00:00 -1,3 -8,1 4 2 - - N 0
05.04.2020 04:00:00 -1,6 -7,5 4 2 46 25 N 0
05.04.2020 03:00:00 -1,3 -7,8 34 18 52 28 E 0
05.04.2020 02:00:00 -1,3 -7,8 39 21 - - E 0
05.04.2020 01:00:00 -1,9 -7,5 57 31 - - E 0
05.04.2020 00:00:00 -1,6 -8,7 44 24 61 33 E 0
04.04.2020 23:00:00 -1,8 -7,4 44 24 - - E 0
04.04.2020 22:00:00 -1,0 -5,9 31 17 53 29 E 0
04.04.2020 21:00:00 0,0 -6,4 4 2 48 26 N 0
04.04.2020 20:00:00 - - - - - - - -
04.04.2020 19:00:00 1,2 -6,0 4 2 50 27 N 60
04.04.2020 18:00:00 1,7 -6,4 28 15 - - E 60
04.04.2020 17:00:00 1,5 -7,2 34 18 - - E 60
04.04.2020 16:00:00 1,7 -7,8 34 18 - - E 60
04.04.2020 15:00:00 1,5 -7,5 37 20 - - E 60
04.04.2020 14:00:00 0,8 -6,6 31 17 - - E 60
04.04.2020 13:00:00 - - - - - - - -
04.04.2020 12:00:00 -0,8 -7,5 50 27 - - E 60
04.04.2020 11:00:00 -1,3 -8,6 42 23 - - E 60
04.04.2020 10:00:00 -2,0 -7,8 61 33 81 44 E 60
04.04.2020 09:00:00 -2,0 -8,1 65 35 90 49 E 60
04.04.2020 08:00:00 -2,0 -8,1 63 34 - - E 38
04.04.2020 07:00:00 -2,1 -7,3 57 31 77 41 E 0
04.04.2020 06:00:00 -1,6 -7,3 48 26 - - E 0
04.04.2020 05:00:00 - - - - - - - -
04.04.2020 04:00:00 -1,6 -5,9 46 25 - - E 0

tt = Temperatura
td = dewpoint
ff = velocità del vento
fx = gusts
dd = direzione del vento
sd = ore di luce

Stazioni seguenti

WeatherPro
AMSI
MeteoEarth